BAW174 NZCH-YPAD

Flight info

Callsign BAW174
Flight time N/A
Altitude 32000
Route MOLGI L508 ECKHO DCT EXROM DCT SPODD DCT BUNGY DCT AD
Aircraft B77W/H-SDE1E2E3FGHIJ2J3J4J5M1RWXY/LB1D1

Departure

Time N/A
Airport Christchurch International Airport (NZCH)

Arrival

Time 2025-09-05 06:38
Airport Adelaide International Airport (YPAD)
Time Latitude Longitude Altitude Speed Heading
2025-09-05 05:47 -38.91321 142.38156 36381 ft 437 kts 279°
2025-09-05 05:48 -38.89016 142.22828 36378 ft 437 kts 279°
2025-09-05 05:50 -38.84354 141.92247 36373 ft 437 kts 279°
2025-09-05 05:53 -38.68113 141.66644 36361 ft 458 kts 320°
2025-09-05 05:55 -38.47148 141.47998 36354 ft 459 kts 320°
2025-09-05 05:57 -38.26241 141.29420 36345 ft 458 kts 320°
2025-09-05 05:58 -38.07950 141.13276 36341 ft 459 kts 320°
2025-09-05 06:01 -37.84148 140.92420 36326 ft 461 kts 320°
2025-09-05 06:02 -37.65731 140.76394 36320 ft 458 kts 320°
2025-09-05 06:05 -37.42066 140.55946 36316 ft 459 kts 320°
2025-09-05 06:06 -37.23545 140.40053 36307 ft 461 kts 320°
2025-09-05 06:09 -36.99714 140.19746 36299 ft 461 kts 320°
2025-09-05 06:10 -36.81110 140.04002 36288 ft 461 kts 320°
2025-09-05 06:13 -36.57206 139.83910 36278 ft 461 kts 320°
2025-09-05 06:14 -36.38518 139.68300 35301 ft 473 kts 320°
2025-09-05 06:16 -36.16896 139.50373 28315 ft 452 kts 323°
2025-09-05 06:18 -35.99090 139.35689 23447 ft 431 kts 324°
2025-09-05 06:18 -35.96594 139.33637 22708 ft 428 kts 324°
2025-09-05 06:19 -35.89232 139.27596 20717 ft 418 kts 324°
2025-09-05 06:19 -35.86848 139.25641 20086 ft 415 kts 324°
2025-09-05 06:20 -35.79703 139.19794 18135 ft 408 kts 325°
2025-09-05 06:21 -35.75003 139.15954 16900 ft 399 kts 325°
2025-09-05 06:21 -35.70408 139.12207 15709 ft 392 kts 325°
2025-09-05 06:22 -35.65919 139.08550 14616 ft 384 kts 326°
2025-09-05 06:22 -35.61570 139.05013 13497 ft 360 kts 326°
2025-09-05 06:23 -35.57471 139.01682 12006 ft 350 kts 326°
2025-09-05 06:23 -35.53430 138.98401 11184 ft 339 kts 327°
2025-09-05 06:24 -35.49634 138.95323 10876 ft 315 kts 327°
2025-09-05 06:24 -35.46126 138.92484 10480 ft 287 kts 327°
2025-09-05 06:25 -35.42961 138.89971 10191 ft 261 kts 328°
2025-09-05 06:25 -35.40002 138.87663 9845 ft 246 kts 328°
2025-09-05 06:26 -35.37079 138.85383 9243 ft 254 kts 328°
2025-09-05 06:26 -35.34066 138.83031 8559 ft 258 kts 328°
2025-09-05 06:27 -35.31073 138.80629 7886 ft 256 kts 321°
2025-09-05 06:27 -35.29842 138.79069 7561 ft 254 kts 311°
2025-09-05 06:27 -35.27738 138.75613 6935 ft 254 kts 308°
2025-09-05 06:28 -35.24621 138.70293 6589 ft 281 kts 308°
2025-09-05 06:29 -35.22062 138.65958 6362 ft 330 kts 308°
2025-09-05 06:29 -35.19427 138.61493 6013 ft 314 kts 308°
2025-09-05 06:30 -35.17114 138.57498 5563 ft 262 kts 308°
2025-09-05 06:30 -35.15121 138.54004 4475 ft 243 kts 308°
2025-09-05 06:31 -35.13228 138.50624 3321 ft 240 kts 308°
2025-09-05 06:31 -35.12266 138.48889 3176 ft 248 kts 308°
2025-09-05 06:31 -35.10397 138.45442 2887 ft 237 kts 308°
2025-09-05 06:32 -35.06841 138.42617 2138 ft 193 kts
2025-09-05 06:33 -35.04623 138.41624 1982 ft 163 kts 327°
2025-09-05 06:33 -35.02988 138.42010 1951 ft 143 kts 69°
2025-09-05 06:33 -35.02656 138.43132 1930 ft 139 kts 41°
2025-09-05 06:34 -35.01036 138.44095 2188 ft 143 kts 59°
2025-09-05 06:34 -34.99962 138.46008 2392 ft 133 kts 44°
2025-09-05 06:35 -34.98595 138.47646 1037 ft 142 kts 48°
2025-09-05 06:36 -34.96878 138.50218 205 ft 111 kts 50°
2025-09-05 06:36 -34.95987 138.51511 68 ft 92 kts 54°
2025-09-05 06:36 -34.95588 138.52101 27 ft 88 kts 50°
2025-09-05 06:37 -34.94668 138.53439 27 ft 22 kts 49°
2025-09-05 06:37 -34.94603 138.53505 26 ft 17 kts
2025-09-05 06:38 -34.94550 138.53472 31 ft 0 kts 313°
2025-09-05 06:39 -34.94431 138.53362 29 ft 0 kts 10°